Regional Weather Roundup
Issued by NWS

Home | Current Version | Previous Version | Text Only | Print | Product List | Glossary On
Versions: 1 2 3 4 5 6 7 8 9 10 11 12 13 14 15 16 17 18 19 20 21 22 23 24 25 26 27 28 29 30 31 32 33 34 35 36 37 38 39 40 41 42 43 44 45 46 47 48 49 50
000
ASUS45 KBOI 271110
RWRID
WEATHER ROUNDUP FOR IDAHO
NATIONAL WEATHER SERVICE BOISE ID
500 AM MDT MON APR 27 2015

NOTE: "FAIR" INDICATES FEW OR NO CLOUDS BELOW 12000 FEET
WITH NO SIGNIFICANT WEATHER AND/OR OBSTRUCTIONS TO VISIBILITY

IDZ012-014-271200-
SOUTHWEST IDAHO


CITY           SKY/WX    TMP DP  RH WIND       PRES   REMARKS
BOISE          CLEAR     37  26  64 S3        30.25R
CALDWELL       CLEAR     37  21  52 W7        30.29S WCI  32
MOUNTAIN HOME  CLEAR     39  24  54 NW15      30.24R WCI  31
$$

IDZ016-017-271200-
SOUTHCENTRAL IDAHO


CITY           SKY/WX    TMP DP  RH WIND       PRES   REMARKS
BURLEY         CLEAR     33  20  58 CALM      30.23R
JEROME         CLEAR     33  19  56 SE6       30.24R WCI  28
TWIN FALLS     CLEAR     37  20  50 S14       30.23R WCI  28
$$

IDZ019>023-271200-
SOUTHEAST IDAHO


CITY           SKY/WX    TMP DP  RH WIND       PRES   REMARKS
IDAHO FALLS    CLEAR     31  28  89 N5        30.24R WCI  26
POCATELLO      CLEAR     34  25  69 S7        30.25S WCI  28
REXBURG        CLEAR     33  29  85 NE3       30.24R
$$

IDZ006-010-011-018-031-032-271200-
CENTRAL IDAHO MOUNTAINS


CITY           SKY/WX    TMP DP  RH WIND       PRES   REMARKS
MCCALL         CLEAR     29  23  78 N3        30.28R
HAILEY         CLEAR     34  27  75 NW7       30.27R WCI  28
STANLEY          N/A     19  14  81 CALM      30.30R
SALMON         CLEAR     34  30  86 SE3       30.30R
CHALLIS        CLEAR     28  23  81 CALM      30.29R
$$

IDZ002-004-006-007-026-271200-
NORTHERN IDAHO


CITY           SKY/WX    TMP DP  RH WIND       PRES   REMARKS
LEWISTON       PTCLDY    39  28  64 E5        30.31S
LOWELL           N/A     35  33  92 VRB5      30.40F WCI  31
COEUR D`ALENE  CLEAR     34  28  80 E3        30.32R
MULLAN PASS    PTCLDY    30  21  69 NW5       30.27R WCI  25
$$


USA.gov is the U.S. government's official web portal to all federal, state and local government web resources and services.